Waarnemingen

Advertentie
Mijn weer
Stornoway, Groot Brittannië (3026): temperatuur & dauwpunt: 18.09.2018 10:00:00 - 24.09.2018 10:00:00 (BST)Stornoway, Groot Brittannië (3026): temperatuur -20cm & temperatuur -100cm: 18.09.2018 10:00:00 - 24.09.2018 10:00:00 (BST)Stornoway, Groot Brittannië (3026): windsnelheid & windstoten: 18.09.2018 10:00:00 - 24.09.2018 10:00:00 (BST)Stornoway, Groot Brittannië (3026): windrichting: 18.09.2018 10:00:00 - 24.09.2018 10:00:00 (BST)Stornoway, Groot Brittannië (3026): luchtdruk: 18.09.2018 10:00:00 - 24.09.2018 10:00:00 (BST)Stornoway, Groot Brittannië (3026): zicht: 18.09.2018 10:00:00 - 24.09.2018 10:00:00 (BST)Stornoway, Groot Brittannië (3026): Zonneschijnduur: 18.09.2018 10:00:00 - 24.09.2018 10:00:00 (BST)Stornoway, Groot Brittannië (3026): neerslag: 18.09.2018 10:00:00 - 24.09.2018 10:00:00 (BST)
Datum & Tijd tt [°C] td [°C] tt -20cm [°C] tt -100cm [°C] ff [km/u] ff [kn] fx [km/u] fx [kn] dd ppp [hPa] vv [km] sd [min] rr [mm]
24.09.2018 10:00:00 9,9 7,0 11,2 11,9 15 8 - - W 1031,4 50 42 0,0
24.09.2018 09:00:00 7,8 5,8 - - 15 8 - - W 1030,6 45 36 0,0
24.09.2018 08:00:00 4,8 3,4 - - 9 5 - - W 1029,2 35 12 0,0
24.09.2018 07:00:00 5,6 4,0 - - 15 8 - - WZW 1029,0 45 0 0,0
24.09.2018 06:00:00 7,4 5,6 - - 18 10 - - W 1029,4 4,4 0 0,8
24.09.2018 05:00:00 6,3 4,0 - - 21 11 - - W 1028,7 45 0 0,0
24.09.2018 04:00:00 6,4 3,8 - - 21 11 - - W 1028,5 50 0 0,0
24.09.2018 03:00:00 6,0 4,6 - - 15 8 - - WZW 1028,3 30 0 0,0
24.09.2018 02:00:00 5,5 4,0 - - 13 7 - - WNW 1027,9 35 0 0,0
24.09.2018 01:00:00 6,2 5,0 - - 13 7 - - WZW 1027,8 40 - 0,0
24.09.2018 00:00:00 5,8 4,0 - - 15 8 - - W 1027,2 50 0 0,2
23.09.2018 23:00:00 6,9 5,4 - - 16 9 57 31 WZW 1026,8 40 0 3,0
23.09.2018 22:00:00 8,1 4,3 - - 22 12 - - WNW 1026,4 45 0 0,2
23.09.2018 21:00:00 7,3 4,0 - - 21 11 - - W 1026,2 45 0 0,0
23.09.2018 20:00:00 7,1 3,4 - - 16 9 - - W 1025,9 35 0 0,0
23.09.2018 19:00:00 8,3 4,3 - - 18 10 52 28 WNW 1025,9 28 24 0,2
23.09.2018 18:00:00 9,8 3,2 - - 35 19 - - NW 1025,8 28 42 0,0
23.09.2018 17:00:00 8,3 4,2 - - 37 20 54 29 NW 1025,3 17 42 0,2
23.09.2018 16:00:00 8,9 4,3 - - 44 24 57 31 NW 1024,7 4,7 42 0,0
23.09.2018 15:00:00 8,8 4,4 - - 42 23 61 33 NW 1023,7 18 42 0,0
23.09.2018 14:00:00 11,1 5,2 - - 35 19 50 27 NW 1022,8 35 48 0,0
23.09.2018 13:00:00 10,2 6,6 - - 24 13 - - NNW 1021,8 50 24 0,2
23.09.2018 12:00:00 10,8 6,3 - - 21 11 - - NNW 1021,3 50 54 0,0
23.09.2018 11:00:00 9,2 5,7 - - 21 11 - - WNW 1019,8 50 48 0,0
23.09.2018 10:00:00 8,4 6,1 11,7 12,0 13 7 - - W 1018,6 40 36 0,2
23.09.2018 09:00:00 5,5 4,9 - - 9 5 - - WZW 1017,2 45 12 0,0
23.09.2018 08:00:00 4,9 3,9 - - 9 5 - - WNW 1016,2 50 0 0,0
23.09.2018 07:00:00 4,9 4,0 - - 9 5 - - W 1015,6 50 0 0,0
23.09.2018 06:00:00 4,7 3,9 - - 11 6 - - WZW 1015,3 45 0 0,2
23.09.2018 05:00:00 5,5 4,8 - - 13 7 - - W 1015,1 35 0 1,0
23.09.2018 04:00:00 4,8 4,0 - - 9 5 - - WNW 1015,1 16 0 0,0
23.09.2018 03:00:00 5,1 4,2 - - 8 4 - - W 1014,9 50 0 0,0
23.09.2018 02:00:00 5,8 4,7 - - 5 3 - - WZW 1014,8 50 0 0,6
23.09.2018 01:00:00 6,3 4,5 - - 4 2 - - NNW 1014,8 50 - 0,0
23.09.2018 00:00:00 6,6 5,0 - - 11 6 - - W 1014,7 45 0 0,2
22.09.2018 23:00:00 5,8 4,8 - - 13 7 - - W 1014,1 40 0 0,0
22.09.2018 22:00:00 6,2 4,9 - - 11 6 - - W 1014,0 28 0 0,0
22.09.2018 21:00:00 6,4 5,0 - - 8 4 - - W 1013,9 45 0 0,2
22.09.2018 20:00:00 7,1 5,1 - - 8 4 - - WZW 1013,6 50 0 0,8
22.09.2018 19:00:00 8,4 5,6 - - 8 4 - - WNW 1013,9 35 12 0,0
22.09.2018 18:00:00 9,2 5,9 - - 18 10 - - NNW 1013,8 16 18 0,0
22.09.2018 17:00:00 10,3 6,3 - - 9 5 - - NW 1014,3 45 12 0,2
22.09.2018 16:00:00 11,5 4,9 - - 26 14 - - NW 1014,5 35 54 0,2
22.09.2018 15:00:00 10,0 6,3 - - 28 15 - - WNW 1013,4 30 12 0,0
22.09.2018 14:00:00 10,4 5,9 - - 24 13 - - WNW 1013,0 45 18 0,0
22.09.2018 13:00:00 10,6 6,0 - - 31 17 - - NW 1012,3 30 36 0,0
22.09.2018 12:00:00 10,1 6,9 - - 26 14 - - W 1011,8 28 42 0,0
22.09.2018 11:00:00 9,3 7,5 - - 24 13 - - NW 1010,6 45 6 0,2
22.09.2018 10:00:00 8,4 7,0 11,7 12,0 31 17 - - NW 1009,7 4,1 0 0,2
22.09.2018 09:00:00 8,4 6,8 - - 31 17 50 27 WNW 1008,8 5 0 0,6
22.09.2018 08:00:00 7,9 6,5 - - 31 17 - - WNW 1008,0 4,3 0 0,0
22.09.2018 07:00:00 8,6 6,7 - - 29 16 52 28 WNW 1007,1 26 0 0,2
22.09.2018 06:00:00 8,8 7,1 - - 34 18 57 31 WNW 1006,6 3,8 0 0,2
22.09.2018 05:00:00 8,4 6,8 - - 35 19 65 35 W 1005,9 3,1 0 0,4
22.09.2018 04:00:00 8,9 5,5 - - 41 22 63 34 W 1005,4 22 0 0,0
22.09.2018 03:00:00 8,5 4,5 - - 39 21 61 33 W 1004,9 26 0 0,0
22.09.2018 02:00:00 8,2 5,5 - - 31 17 54 29 WNW 1004,5 21 0 0,2
22.09.2018 01:00:00 8,5 4,6 - - 34 18 55 30 W 1004,3 21 - 0,0
22.09.2018 00:00:00 8,6 4,6 - - 29 16 - - WNW 1004,1 21 0 0,0
21.09.2018 23:00:00 8,3 5,8 - - 24 13 - - W 1003,8 30 0 0,2
21.09.2018 22:00:00 8,3 5,6 - - 29 16 - - W 1003,4 28 0 0,0
21.09.2018 21:00:00 7,9 4,7 - - 26 14 - - W 1003,0 30 0 0,0
21.09.2018 20:00:00 7,8 5,8 - - 24 13 54 29 W 1002,8 40 0 0,8
21.09.2018 19:00:00 8,4 6,7 - - 22 12 52 28 W 1002,8 35 18 0,6
21.09.2018 18:00:00 8,8 6,1 - - 35 19 68 37 W 1003,9 9 30 0,0
21.09.2018 17:00:00 11,7 5,4 - - 31 17 46 25 W 1004,2 35 54 0,0
21.09.2018 16:00:00 12,0 5,3 - - 31 17 48 26 WNW 1003,8 40 54 0,0
21.09.2018 15:00:00 12,5 5,6 - - 34 18 48 26 WNW 1003,4 40 42 0,0
21.09.2018 14:00:00 11,3 4,9 - - 29 16 - - NW 1002,2 35 30 0,0
21.09.2018 13:00:00 10,9 4,1 - - 34 18 - - NNW 1000,7 35 24 0,0
21.09.2018 12:00:00 9,5 5,3 - - 29 16 54 29 NNW 999,5 50 48 0,0
21.09.2018 11:00:00 9,9 5,4 - - 34 18 - - NNW 998,3 29 36 0,0
21.09.2018 10:00:00 9,6 6,2 12,0 12,0 26 14 - - N 997,1 20 0 0,0
21.09.2018 09:00:00 9,0 7,0 - - 18 10 - - N 995,8 19 0 0,2
21.09.2018 08:00:00 8,4 7,2 - - 21 11 - - NNO 994,7 17 0 0,6
21.09.2018 07:00:00 8,5 7,4 - - 28 15 - - N 994,2 12 0 0,0
21.09.2018 06:00:00 9,0 7,6 - - 18 10 - - NO 993,6 25 0 0,0
21.09.2018 05:00:00 8,2 7,5 - - 9 5 - - WNW 993,6 50 0 0,2
21.09.2018 04:00:00 7,7 7,3 - - 11 6 - - W 993,8 50 0 0,0
21.09.2018 03:00:00 6,4 5,9 - - 4 2 - - WZW 993,9 22 0 0,0
21.09.2018 02:00:00 7,5 6,9 - - 4 2 - - W 994,1 40 0 0,0
21.09.2018 01:00:00 7,9 7,3 - - 2 1 - - W 994,6 45 - 0,0
21.09.2018 00:00:00 8,0 7,2 - - 9 5 - - ZW 995,1 40 0 0,0
20.09.2018 23:00:00 8,4 7,6 - - 8 4 - - ZW 995,7 40 0 0,0
20.09.2018 22:00:00 8,5 7,7 - - 9 5 - - ZW 996,5 40 0 0,0
20.09.2018 21:00:00 9,1 8,2 - - 4 2 - - WZW 996,9 35 0 0,0
20.09.2018 20:00:00 9,4 8,4 - - 5 3 - - ZW 997,7 13 0 0,6
20.09.2018 19:00:00 10,1 8,3 - - 15 8 - - WZW 997,9 45 6 0,0
20.09.2018 18:00:00 10,8 8,9 - - 16 9 - - WZW 998,2 22 6 0,0
20.09.2018 17:00:00 11,4 9,7 - - 21 11 - - W 998,7 26 24 0,2
20.09.2018 16:00:00 10,8 9,3 - - 26 14 - - WZW 998,8 40 0 0,0
20.09.2018 15:00:00 10,9 9,3 - - 26 14 - - WZW 998,6 6 6 0,4
20.09.2018 14:00:00 12,2 9,7 - - 24 13 48 26 WZW 999,1 19 24 1,8
20.09.2018 13:00:00 11,0 9,6 - - 28 15 46 25 WZW 997,8 18 6 0,4
20.09.2018 12:00:00 10,3 9,3 - - 34 18 61 33 WZW 996,8 14 0 2,2
20.09.2018 11:00:00 9,9 8,8 - - 29 16 54 29 WZW 995,7 7 0 2,8
20.09.2018 10:00:00 10,4 9,3 12,0 12,2 37 20 57 31 WZW 994,5 7 0 0,4
20.09.2018 09:00:00 9,7 8,5 - - 39 21 65 35 WZW 993,5 17 0 0,2
20.09.2018 08:00:00 9,0 7,4 - - 46 25 91 49 ZW 992,7 9 0 2,2
20.09.2018 07:00:00 9,3 6,9 - - 42 23 72 39 WZW 992,0 6 0 0,6
20.09.2018 06:00:00 10,4 5,8 - - 52 28 74 40 ZW 992,1 16 0 0,0
20.09.2018 05:00:00 10,4 6,2 - - 46 25 70 38 ZW 992,0 11 0 0,0
20.09.2018 04:00:00 9,7 6,2 - - 44 24 78 42 WZW 992,1 23 0 0,0
20.09.2018 03:00:00 10,1 6,8 - - 42 23 63 34 ZW 991,4 12 0 0,0
20.09.2018 02:00:00 9,6 7,1 - - 42 23 74 40 ZW 991,1 15 0 0,6
20.09.2018 01:00:00 9,7 7,1 - - 46 25 65 35 WZW 990,3 17 - 0,4
20.09.2018 00:00:00 10,3 6,7 - - 39 21 70 38 WZW 990,4 19 0 0,2
19.09.2018 23:00:00 10,3 6,5 - - 44 24 67 36 ZW 990,2 23 0 0,0
19.09.2018 22:00:00 10,2 6,7 - - 46 25 67 36 ZW 990,2 25 0 0,0
19.09.2018 21:00:00 9,9 7,0 - - 48 26 67 36 WZW 989,5 21 0 0,2
19.09.2018 20:00:00 10,7 6,7 - - 42 23 68 37 WZW 988,7 22 0 0,0
19.09.2018 19:00:00 10,3 7,2 - - 44 24 67 36 WZW 987,8 29 0 0,0
19.09.2018 18:00:00 11,1 7,5 - - 44 24 65 35 WZW 987,3 25 18 0,0
19.09.2018 17:00:00 10,6 8,2 - - 44 24 61 33 W 986,2 2,9 6 0,4
19.09.2018 16:00:00 10,2 9,0 - - 35 19 67 36 W 984,4 30 0 0,4
19.09.2018 15:00:00 8,8 7,4 - - 48 26 68 37 WNW 981,1 8 0 0,8
19.09.2018 14:00:00 10,5 9,3 - - 18 10 - - ZW 978,2 11 0 0,8
19.09.2018 13:00:00 10,4 9,2 - - 18 10 - - OZO 978,9 11 0 1,4
19.09.2018 12:00:00 9,9 8,0 - - 24 13 - - OZO 980,4 35 0 0,8
19.09.2018 11:00:00 9,7 7,1 - - 31 17 65 35 Z 983,3 16 0 0,0
19.09.2018 10:00:00 10,5 7,3 12,5 12,2 52 28 72 39 Z 986,3 15 0 0,0
19.09.2018 09:00:00 11,7 8,8 - - 41 22 59 32 Z 988,0 17 0 0,0
19.09.2018 08:00:00 11,3 8,5 - - 34 18 55 30 ZZW 989,4 5 0 0,0
19.09.2018 07:00:00 10,8 7,9 - - 35 19 55 30 ZZW 990,4 15 0 0,8
19.09.2018 06:00:00 10,8 8,2 - - 37 20 65 35 ZZW 990,6 17 0 0,0
19.09.2018 05:00:00 10,1 8,2 - - 44 24 63 34 ZW 990,3 25 0 0,0
19.09.2018 04:00:00 10,0 7,4 - - 34 18 52 28 ZW 990,5 24 0 0,0
19.09.2018 03:00:00 10,1 8,3 - - 35 19 55 30 ZW 990,4 22 0 0,6
19.09.2018 02:00:00 10,0 8,3 - - 28 15 67 36 ZZW 990,0 27 0 2,6
19.09.2018 01:00:00 11,6 9,0 - - 31 17 57 31 ZZW 990,3 14 - 0,0
19.09.2018 00:00:00 12,1 9,4 - - 31 17 50 27 ZZW 990,4 11 0 0,0
18.09.2018 23:00:00 12,4 10,0 - - 29 16 46 25 ZZW 990,9 10 0 0,0
18.09.2018 22:00:00 12,6 10,2 - - 35 19 52 28 ZZW 991,6 11 0 0,0
18.09.2018 21:00:00 12,7 11,2 - - 29 16 48 26 ZZW 992,1 19 0 0,0
18.09.2018 20:00:00 11,9 11,2 - - 22 12 - - Z 992,6 28 0 0,2
18.09.2018 19:00:00 11,8 11,1 - - 21 11 - - Z 992,9 35 0 0,0
18.09.2018 18:00:00 11,8 11,1 - - 13 7 - - ZZW 993,8 18 6 0,0
18.09.2018 17:00:00 11,8 11,2 - - 2 1 - - OZO 993,4 4,6 0 0,2
18.09.2018 16:00:00 12,0 11,1 - - 5 3 - - NO 993,7 13 0 0,0
18.09.2018 15:00:00 11,8 10,8 - - 16 9 - - NNO 993,3 27 0 0,2
18.09.2018 14:00:00 12,3 11,4 - - 18 10 - - NO 993,7 12 0 1,0
18.09.2018 13:00:00 12,3 10,7 - - 22 12 - - NO 993,8 30 0 0,0
18.09.2018 12:00:00 12,6 10,2 - - 21 11 - - NO 994,4 40 18 0,0
18.09.2018 11:00:00 12,8 10,9 - - 21 11 - - NNO 995,2 26 30 0,0
18.09.2018 10:00:00 12,1 10,4 12,4 12,2 16 9 - - NO 995,3 45 0 0,0

tt = temperatuur
td = dauwpunt
tt -20cm = temperatuur -20cm
tt -100cm = temperatuur -100cm
ff = windsnelheid
fx = windstoten
dd = windrichting
ppp = luchtdruk
vv = zicht
sd = Zonneschijnduur
rr = neerslag

Weerstations in de omgeving